Ponca City, OK

7:26 AM CDT on October 20, 2019 (GMT -0500)
Ponca City Municipal

Weather History for KPNC - June, 2019

Change the Weather History Date:

Tuesday, June 4, 2019

  Actual Average Record
Temperature  
Mean Temperature 76 °F -  
Max Temperature 87 °F 85 °F 98 °F (2011)
Min Temperature 66 °F 63 °F 41 °F (1950)
Cooling Degree Days 12    
Growing Degree Days 26 (Base 50)    
Moisture  
Dew Point 66 °F    
Average Humidity 74    
Maximum Humidity 90    
Minimum Humidity 49    
Precipitation  
Precipitation 0.02 in - - ()
Sea Level Pressure  
Sea Level Pressure 29.87 in    
Wind  
Wind Speed 7 mph (SSW)    
Max Wind Speed 14 mph    
Max Gust Speed 25 mph    
Visibility 10 miles    
Events Rain , Thunderstorm    
Averages and records for this station are not official NWS values.
T = Trace of Precipitation, MM = Missing Value Source: NWS Daily Summary

Daily Weather History Graph

Daily Weather History Graph

Search for Another Location

Airport or City:

Astronomy

Jun. 04, 2019 Rise Set
Actual Time 6:10 AM CDT 8:43 PM CDT
Civil Twilight 5:39 AM CDT 9:13 PM CDT
Nautical Twilight 5:02 AM CDT 9:51 PM CDT
Astronomical Twilight 4:20 AM CDT 10:33 PM CDT
Moon 7:19 AM CDT (6/4) 10:13 PM CDT (6/4)
Length of Visible Light 15h 33m
Length of Day
14h 33m
New Moon, 2% of the Moon is Illuminated
Jun 4
New Moon
Jun 10
First Quarter
Jun 17
Full
Jun 25
Last Quarter
Jul 2
New

Hourly Weather History & Observations

Time (CDT) Temp. Heat Index Dew Point Humidity Pressure Visibility Wind Dir Wind Speed Gust Speed Precip Events Conditions
12:53 AM 73.0 °F - 69.1 °F 87% 29.92 in 10.0 mi South 6.9 mph - N/A   Partly Cloudy
1:53 AM 73.0 °F - 68.0 °F 84% 29.88 in 10.0 mi South 6.9 mph - N/A   Clear
2:53 AM 72.0 °F - 68.0 °F 87% 29.90 in 10.0 mi SW 5.8 mph - N/A   Clear
3:07 AM 72.0 °F - 68.0 °F 87% 29.96 in 10.0 mi Variable 6.9 mph - N/A   Mostly Cloudy
3:23 AM 72.0 °F - 68.0 °F 87% 29.96 in 10.0 mi SW 4.6 mph - N/A Thunderstorm Overcast
3:38 AM 73.0 °F - 68.0 °F 84% 29.95 in 10.0 mi SW 3.5 mph - N/A   Overcast
3:53 AM 73.0 °F - 66.0 °F 79% 29.94 in 10.0 mi West 13.8 mph 25.3 mph N/A   Overcast
4:02 AM 71.1 °F - 62.1 °F 73% 29.97 in 10.0 mi West 12.7 mph 25.3 mph N/A   Overcast
4:14 AM 68.0 °F - 63.0 °F 84% 29.95 in 9.0 mi West 8.1 mph 19.6 mph 0.01 in Rain , Thunderstorm Light Thunderstorms and Rain
4:45 AM 66.9 °F - 63.0 °F 87% 29.93 in 10.0 mi WNW 5.8 mph - 0.01 in Rain Light Rain
4:53 AM 66.9 °F - 63.0 °F 87% 29.90 in 10.0 mi WNW 4.6 mph - 0.01 in   Scattered Clouds
5:53 AM 66.9 °F - 63.0 °F 87% 29.87 in 10.0 mi Variable 5.8 mph - N/A   Clear
6:53 AM 66.0 °F - 63.0 °F 90% 29.87 in 10.0 mi Variable 5.8 mph - 0.01 in Rain Light Rain
7:53 AM 66.9 °F - 63.0 °F 87% 29.82 in 10.0 mi South 12.7 mph 23.0 mph 0.00 in   Mostly Cloudy
8:53 AM 70.0 °F - 64.0 °F 81% 29.82 in 10.0 mi Variable 6.9 mph 16.1 mph N/A   Mostly Cloudy
9:45 AM 71.1 °F - 64.0 °F 78% 29.91 in 10.0 mi Variable 3.5 mph 16.1 mph N/A   Mostly Cloudy
9:53 AM 72.0 °F - 64.0 °F 76% 29.86 in 10.0 mi SSE 8.1 mph - N/A   Scattered Clouds
10:53 AM 75.9 °F - 64.0 °F 67% 29.85 in 10.0 mi ENE 6.9 mph - N/A   Mostly Cloudy
11:53 AM 78.1 °F - 64.9 °F 64% 29.87 in 10.0 mi SSE 5.8 mph - N/A   Clear
12:53 PM 81.0 °F 83.8 °F 68.0 °F 65% 29.88 in 10.0 mi South 9.2 mph - N/A   Clear
1:53 PM 86.0 °F 89.4 °F 68.0 °F 55% 29.86 in 10.0 mi SSW 11.5 mph 21.9 mph N/A   Clear
2:53 PM 84.9 °F 87.1 °F 66.0 °F 53% 29.86 in 10.0 mi SW 11.5 mph 25.3 mph N/A   Clear
3:53 PM 84.9 °F 88.2 °F 68.0 °F 57% 29.85 in 10.0 mi South 8.1 mph 20.7 mph N/A   Clear
4:53 PM 87.1 °F 89.2 °F 66.0 °F 49% 29.82 in 10.0 mi SW 13.8 mph 20.7 mph N/A   Clear
5:53 PM 87.1 °F 90.6 °F 68.0 °F 53% 29.80 in 10.0 mi SW 11.5 mph 17.3 mph N/A   Clear
6:53 PM 87.1 °F 90.6 °F 68.0 °F 53% 29.78 in 10.0 mi SSW 9.2 mph - N/A   Clear
7:53 PM 84.0 °F 87.8 °F 69.1 °F 61% 29.78 in 10.0 mi Variable 4.6 mph - N/A   Clear
8:53 PM 81.0 °F 84.1 °F 69.1 °F 67% 29.79 in 10.0 mi South 4.6 mph - N/A   Clear
9:53 PM 79.0 °F - 70.0 °F 74% 29.80 in 10.0 mi Variable 3.5 mph - N/A   Clear
10:53 PM 77.0 °F - 70.0 °F 79% 29.81 in 10.0 mi South 6.9 mph - N/A   Clear
11:53 PM 75.0 °F - 69.1 °F 82% 29.83 in 10.0 mi South 5.8 mph - N/A   Clear